Powrót do katalogu

CZ-6A DEB

AktywnyPO
NORAD 60778·DEBRIS·🇨🇳 China

Wystrzelony Aug 6, 2024 z Taiyuan Satellite Launch Center

Loading…

Następne Przeloty (najbliższe 24 godziny)

TLE

ŚwieżeSource: Space-Track

Epoka: Sep 14, 2026, 06:01 UTC

1 60778U 24140FD  26257.25095622  .00312518  00000-0  64970-2 0  9990
2 60778  88.9888 255.7712 0023370 163.3586 196.8445 15.44231161113106

Śledź CZ-6A DEB w czasie rzeczywistym z AllMySat

Download on the App Store